TimePDT,TemperatureF,Dew PointF,Humidity,Sea Level PressureIn,VisibilityMPH,Wind Direction,Wind SpeedMPH,Gust SpeedMPH,PrecipitationIn,Events,Conditions,WindDirDegrees,DateUTC
12:53 AM,45.0,42.1,90,30.11,4.0,Calm,Calm,-,N/A,,Clear,0,2013-03-12 07:53:00
1:31 AM,42.8,41.0,93,30.13,0.8,Calm,Calm,-,N/A,,Mist,0,2013-03-12 08:31:00
1:41 AM,42.8,41.0,93,30.13,0.2,Calm,Calm,-,N/A,Fog,Fog,0,2013-03-12 08:41:00
1:48 AM,42.8,41.0,93,30.13,0.5,Calm,Calm,-,N/A,Fog,Fog,0,2013-03-12 08:48:00
1:53 AM,43.0,41.0,93,30.11,0.5,Calm,Calm,-,N/A,Fog,Fog,0,2013-03-12 08:53:00
2:02 AM,42.8,41.0,93,30.13,0.5,Calm,Calm,-,N/A,Fog,Fog,0,2013-03-12 09:02:00
2:12 AM,42.8,39.2,87,30.12,0.2,Calm,Calm,-,N/A,Fog,Fog,0,2013-03-12 09:12:00
2:31 AM,41.0,39.2,93,30.12,0.5,Calm,Calm,-,N/A,Fog,Fog,0,2013-03-12 09:31:00
2:53 AM,42.1,39.9,92,30.11,0.5,Calm,Calm,-,N/A,Fog,Fog,0,2013-03-12 09:53:00
3:03 AM,42.8,41.0,93,30.12,0.2,Calm,Calm,-,N/A,Fog,Fog,0,2013-03-12 10:03:00
3:11 AM,41.0,39.2,93,30.12,0.5,Calm,Calm,-,N/A,Fog,Fog,0,2013-03-12 10:11:00
3:37 AM,41.0,39.2,93,30.11,0.8,Calm,Calm,-,N/A,,Mist,0,2013-03-12 10:37:00
3:42 AM,41.0,39.2,93,30.11,1.0,Calm,Calm,-,N/A,,Mist,0,2013-03-12 10:42:00
3:53 AM,41.0,39.9,96,30.09,1.2,Calm,Calm,-,N/A,,Overcast,0,2013-03-12 10:53:00
4:09 AM,41.0,39.2,93,30.11,0.5,Calm,Calm,-,N/A,Fog,Fog,0,2013-03-12 11:09:00
4:53 AM,41.0,39.0,93,30.09,0.2,Calm,Calm,-,N/A,Fog,Fog,0,2013-03-12 11:53:00
5:05 AM,41.0,39.2,93,30.11,0.5,Calm,Calm,-,N/A,Fog,Fog,0,2013-03-12 12:05:00
5:53 AM,39.9,39.0,97,30.10,0.2,ESE,3.5,-,N/A,Fog,Fog,120,2013-03-12 12:53:00
6:30 AM,39.2,39.2,100,30.12,2.0,Calm,Calm,-,N/A,,Overcast,0,2013-03-12 13:30:00
6:39 AM,41.0,39.2,93,30.12,1.8,Calm,Calm,-,N/A,,Overcast,0,2013-03-12 13:39:00
6:49 AM,39.2,39.2,100,30.12,2.0,Calm,Calm,-,N/A,,Overcast,0,2013-03-12 13:49:00
6:53 AM,39.9,39.0,97,30.11,2.0,Calm,Calm,-,N/A,,Overcast,0,2013-03-12 13:53:00
7:34 AM,41.0,39.2,93,30.13,0.5,Calm,Calm,-,N/A,Fog,Fog,0,2013-03-12 14:34:00
7:53 AM,41.0,39.9,96,30.12,1.0,Calm,Calm,-,N/A,,Mist,0,2013-03-12 14:53:00
8:53 AM,42.1,41.0,96,30.14,0.5,Calm,Calm,-,N/A,Fog,Fog,0,2013-03-12 15:53:00
9:53 AM,46.0,45.0,96,30.14,3.0,Calm,Calm,-,N/A,Fog,Patches of Fog,0,2013-03-12 16:53:00
10:53 AM,53.1,48.0,83,30.14,10.0,Calm,Calm,-,N/A,,Scattered Clouds,0,2013-03-12 17:53:00
11:53 AM,61.0,48.9,64,30.13,10.0,Calm,Calm,-,N/A,,Scattered Clouds,0,2013-03-12 18:53:00
12:53 PM,66.9,50.0,54,30.11,10.0,Calm,Calm,-,N/A,,Scattered Clouds,0,2013-03-12 19:53:00
1:53 PM,70.0,48.9,47,30.09,10.0,South,6.9,-,N/A,,Clear,180,2013-03-12 20:53:00
1:54 PM,69.8,48.2,46,30.10,10.0,South,4.6,-,N/A,,Clear,190,2013-03-12 20:54:00
2:53 PM,73.0,52.0,48,30.06,10.0,South,4.6,-,N/A,,Scattered Clouds,170,2013-03-12 21:53:00
3:53 PM,73.0,51.1,46,30.06,10.0,South,9.2,-,N/A,,Scattered Clouds,190,2013-03-12 22:53:00
4:53 PM,73.0,48.9,42,30.05,10.0,SSE,8.1,-,N/A,,Scattered Clouds,150,2013-03-12 23:53:00
5:53 PM,71.1,50.0,47,30.05,10.0,SE,8.1,-,N/A,,Clear,140,2013-03-13 00:53:00
6:53 PM,64.0,50.0,60,30.05,10.0,SSE,9.2,-,N/A,,Mostly Cloudy,150,2013-03-13 01:53:00
7:53 PM,54.0,46.9,77,30.07,10.0,SSE,6.9,-,N/A,,Clear,150,2013-03-13 02:53:00
8:53 PM,48.9,46.0,90,30.09,10.0,SSE,5.8,-,N/A,,Clear,150,2013-03-13 03:53:00
9:53 PM,48.9,46.0,90,30.10,10.0,Calm,Calm,-,N/A,,Clear,0,2013-03-13 04:53:00
10:53 PM,46.9,45.0,93,30.11,10.0,Calm,Calm,-,N/A,,Clear,0,2013-03-13 05:53:00